Погода Игнасино

Погода Игнасино : погода сейчас, прогноз погоды и архив. Всё, что Вы хотите узнать о погоде Игнасино!

Хотите узнать прогноз погоды Игнасино? Тогда Вам сюда: Погода Игнасино

Поиск расширенной информации на нашем сайте:

Другие новости

Новости СМИ2

Главная страница сайта

Новости сайта

03.07.2017

Напоминаем, что на нашем специализированном сайте Метеоцентр.Азия вы можете получить высокодетализированные автоматические прогнозы погоды по пунктам России, СНГ и мира в авиационном формате (включающие направление и скорость ветра, видимость, явления погоды, количество и форму облачности, нижнюю и верхнюю границу облачности).


Погода Игнасино - сегодня

Время (UTC), дата Ветер
(°,м/с) 
Видим.   Явления Облачность Т
(°С)
Тd
(°С)
f(%) Тe
(°С)
Pmin
(гПа)
dP
(гПа)
Po
(мм)
O2
(г/м3)
Тmin Tmax R s Состояние
почвы
12 19.05.18 230 (ЮЗ) 3{11}  20000 м  {гроза, ливн. осадки}  10/8 600 м кучево-дожд., средняя 
[Cb cap|Ac lent]
+22.6 +5.1 32 +23  1001  1.7  726  269    +30  0.0     
15 19.05.18 310 (СЗ) 3{13}  20000 м    10/6 600 м кучево-дожд., средняя 
[Cb cap|Ac lent]
+20 +7 43 +20  1004.1  2.7  728  272           
18 19.05.18 330 (СЗ) 20000 м    5/0 средняя 
[Ac lent]
+12.6 +6.2 65 +13  1008.9  3.7  731  280           
21 19.05.18 270 (З) 17000 м  слаб. ливневой дождь  10/10 600 м кучево-дожд. 
[Cb cap]
+11.2 +9.6 90 +13  1013  3.8  734  282           
00 20.05.18 350 (С) 20000 м  {ливн. осадки}  9/0 средняя 
[Ac As]
+10.2 +5.7 74 +11  1015.7  2.4  735  285  +10      влажная 
03 20.05.18 040 (СВ) 20000 м    3/0 средняя, верхняя 
[Ac lent|Ci fib]
+15.9 -0.8 32 +17  1016.2  1.1  736  280           
06 20.05.18 170 (Ю) 20000 м    1/0 верхняя 
[Ci sp]
+19 -2.1 24 +20  1014.5  -1.2  735  277           
09 20.05.18 120 (ЮВ) 20000 м    ясно 
+20.3 -3.4 20 +20  1013.2  -1.2  734  276           
12 20.05.18 340 (С) 20000 м    ясно 
+11.9 +0.2 45 +13  1015.2  735  284    +20.4       
15 20.05.18 010 (С) 20000 м    ясно 
+3.4 +0.1 79 +2  1017  0.7  736  293           
18 20.05.18 020 (С) 20000 м    4/4 600 м кучево-дожд. 
[Cb cap]
+0.8 -0.7 90 1018.3  0.9  736  296           
21 20.05.18 020 (С) 20000 м    9/9 600 м кучево-дожд. 
[Cb cap]
+0.6 -0.9 90 +1  1017.5  -0.8  736  296           
00 21.05.18 190 (Ю) 20000 м    10/0 средняя, верхняя 
[Ac lent|Cs]
+11.9 +5.5 65 +12  1013.6  -2.3  734  282  -0.6        сухая 
03 21.05.18 100 (В) 20000 м    10/0 верхняя 
[Cs]
+21.7 +6.7 38 +22  1007.6  -4.6  731  272           
06 21.05.18 130 (ЮВ) 5{12}  20000 м    10/6 600 м кучево-дожд., верхняя 
[Cb cap|Cs]
+23.9 +5.3 30 +24  1003.6  -3.7  728  269           
09 21.05.18 080 (В) 20000 м    10/4 600 м кучево-дожд., средняя, верхняя 
[Cb cap|Ac cuf|Cs]
+22.9 +8.6 40 +23  1000.1  -3.5  725  268           
12 21.05.18 110 (В) 2{14}  19000 м  слаб. ливневой дождь  10/10 600 м кучево-дожд. 
[Cb cap]
+15.4 +14.4 94 +25  1000.5  -0.3  725  273    +24     
15 21.05.18 130 (ЮВ) 4000 м  слаб. ливневой дождь  10/10 600 м кучево-дожд. 
[Cb cap]
+14.6 +13.8 95 +23  998.2  -2.3  723  274           
18 21.05.18 150 (ЮВ) 20000 м  зарница{ливн. осадки}  10/10 600 м кучево-дожд. 
[Cb cap]
+13.8 +12.9 94 +21  993.3  -4.9  720  273           
21 21.05.18 310 (СЗ) 20000 м  в посл. час туман  10/8 600 м кучево-дожд., средняя 
[Cb cap|Ac lent]
+13 +12.4 96 +19  990.9  -2.4  718  274           
00 22.05.18 300 (СЗ) 3{10}  20000 м  в посл. час ливневой дождь{туман}  10/8 600 м кучево-дожд., средняя 
[Cb cap|Ac lent]
+9.4 +7 85 +9  993.9  2.4  720  279  +9.4      влажная 
06 22.05.18 260 (З) 20000 м  в посл. час ливневой дождь  10/10 600 м кучево-дожд. 
[Cb cap]
+6.1 +3.1 81 +5  994.2  -0.5  719  283           
09 22.05.18 220 (ЮЗ) 2{10}  20000 м    10/10 600 м кучево-дожд. 
[Cb cap]
+6.3 +2 74 +6  993.6  -0.6  719  283           
15 22.05.18 250 (З) 20000 м    ясно 
+3.2 -0.8 75 +4  993.6  -0.2  719  286           
18 22.05.18 080 (В) 20000 м    ясно 
+0.1 -2 86 -1  993.9  -0.1  719  290           
Время (UTC), дата Ветер
(°,м/с) 
Видим.   Явления Облачность Т
(°С)
Тd
(°С)
f(%) Тe
(°С)
Pmin
(гПа)
dP
(гПа)
Po
(мм)
O2
(г/м3)
Тmin Tmax R s Состояние
почвы

Для получения пояснительной информации подведите курсор к названию столбца.

ПОГОДА Игнасино - архив

Всё, что Вы хотите узнать о погоде Игнасино - удобно и подробно!

Выберите нужную дату (начиная с 1 января 2015* года) и нажмите кнопку "Найти".
Будут отображены архивные сводки погоды по пункту Игнасино, начиная с указанной даты.


Отображать данные в формате CSV (для использования в таблицах Excel)


Внимание! Наш архив погоды предназначен исключительно для личного некоммерческого использования в познавательных целях. Если Вам необходимы официальные справки о состоянии погоды (для производственных, юридических, коммерческих и т.п. целей), обращайтесь в органы Росгидромета.

*Примечание: данная дата относится к архиву по метеостанциям СССР (Россия, СНГ, Балтия).
Архив по метеостанциям Зарубежной Европы и Азии (кроме Китая) хранится 10 дней, по другим регионам земного шара (Китай, Африка, Америка, Австралия, Океания) - 1 день.

Игнасино - район местоположения метеостанции


Название, широта, долгота, высота метеостанции:
Игнасино 53.5°ш. 122.4°д. 295 м над ур. моря [Российская Федерация]

Дополнительная информация

В oтличие oт бoльшинства пoгoдных сайтoв мы публикуем пoдрoбную метеoинфoрмацию в детальнoм прoфессиoнальнoм фoрмате.

Характеристики температуры и влажнoсти вoздуха измеряются на высoте 2 м в тени вдали oт зданий и деревьев.
Скoрoсть ветра измеряется на высoте 10 м (на урoвне рoста челoвека скoрoсть ветра ниже в 1.5-2 раза). Если метеoстанция нахoдится в гoрoде или в лесу, тo скoрoсть ветра занижена на 2-4 м/с пo сравнению с oткрытым местoм. Скoрoсть ветра над акватoриями крупных рек и oзёр, а также на вершинах хoлмoв на 2-5 м/с выше, чем в oбычных услoвиях.
Атмoсфернoе давление в разных тoчках местнoсти мoжет значительнo oтличаться oт давления на метеoстанции, в зависимoсти oт услoвий рельефа (при пoдъёме на 10 м давление пoнижается примернo на 1 мм рт.ст.).